This demonstration page uses our WeatherBlox Daily Observations layout. Learn more.

Left ArrowRight Arrow

Hourly Observations for May 9, 2022

Temp ( °F °C ) Dew Point ( °F °C ) Humidity (%) Winds ( mph kmh ) Pressure ( in mb ) Visibility ( mi km ) Precip ( " mm )
12:53 am 00:53 Partly Cloudy 76 24.4 70 21.1 82 82 SSE 18 30 29.39 995 8 13 0.00 0.00
1:53 am 01:53 Partly Cloudy 76 24.4 69 20.6 79 79 S 23 37 29.38 995 8 13 0.00 0.00
2:53 am 02:53 Partly Cloudy 75 23.9 69 20.6 82 82 S 22 35 29.36 994 10 16 0.00 0.00
3:53 am 03:53 Partly Cloudy 74 23.3 68 20 82 82 S 21 33 29.36 994 10 16 0.00 0.00
4:53 am 04:53 Mostly Clear 75 23.9 68 20 79 79 S 22 35 29.37 995 10 16 0.00 0.00
5:53 am 05:53 Mostly Clear 75 23.9 68 20 79 79 S 21 33 29.38 995 8 13 0.00 0.00
6:53 am 06:53 Mostly Sunny 75 23.9 68 20 79 79 S 18 30 29.41 996 8 13 0.00 0.00
7:53 am 07:53 Hazy 76 24.4 69 20.6 79 79 S 21 33 29.44 997 6 10 0.00 0.00
8:53 am 08:53 Hazy 79 26.1 69 20.6 72 72 S 25 41 29.46 998 6 10 0.00 0.00
9:53 am 09:53 Hazy 82 27.8 69 20.6 65 65 SSW 25 41 29.47 998 6 10 0.00 0.00
10:53 am 10:53 Sunny 85 29.4 68 20 57 57 SSW 28 44 29.49 999 8 13 0.00 0.00
11:53 am 11:53 Sunny 87 30.6 67 19.4 51 51 SSW 26 43 29.50 999 8 13 0.00 0.00
12:53 pm 12:53 Sunny 89 31.7 66 18.9 47 47 S 28 44 29.50 999 9 14 0.00 0.00
1:53 pm 13:53 Sunny 90 32.2 69 20.6 50 50 S 22 35 29.50 999 9 14 0.00 0.00
2:53 pm 14:53 Sunny 91 32.8 69 20.6 49 49 S 24 39 29.51 999 9 14 0.00 0.00
3:53 pm 15:53 Mostly Sunny 91 32.8 70 21.1 50 50 S 24 39 29.50 999 10 16 0.00 0.00
4:53 pm 16:53 Sunny 91 32.8 70 21.1 50 50 S 28 44 29.50 999 10 16 0.00 0.00
5:53 pm 17:53 Sunny 90 32.2 70 21.1 52 52 S 21 33 29.51 999 10 16 0.00 0.00
6:53 pm 18:53 Sunny 88 31.1 70 21.1 55 55 S 21 33 29.52 1000 10 16 0.00 0.00
7:53 pm 19:53 Sunny 84 28.9 71 21.7 65 65 SSE 17 28 29.54 1000 10 16 0.00 0.00
8:53 pm 20:53 Clear 82 27.8 72 22.2 72 72 SSE 20 31 29.57 1002 10 16 0.00 0.00
9:53 pm 21:53 Clear 81 27.2 72 22.2 74 74 SSE 22 35 29.61 1003 10 16 0.00 0.00
10:53 pm 22:53 Clear 80 26.7 71 21.7 74 74 S 18 30 29.63 1003 10 16 0.00 0.00
11:53 pm 23:53 Clear 79 26.1 72 22.2 79 79 S 22 35 29.65 1004 8 13 0.00 0.00

Powered by AerisWeather